Nausori, Fiji

11:35 PM FJT on February 27, 2017 (GMT +1200)
Nausori International

Weather History for NFNA - January, 2008

Change the Weather History Date:

Tuesday, January 1, 2008

  Actual Average Record
Temperature  
Mean Temperature 80 °F -  
Max Temperature 87 °F 87 °F - ()
Min Temperature 73 °F 75 °F - ()
Cooling Degree Days 15    
Growing Degree Days 30 (Base 50)    
Moisture  
Dew Point 76 °F    
Average Humidity 88    
Maximum Humidity 100    
Minimum Humidity 70    
Precipitation  
Precipitation 0.12 in 0.41 in - ()
Sea Level Pressure  
Sea Level Pressure 29.67 in    
Wind  
Wind Speed 2 mph ()    
Max Wind Speed 12 mph    
Max Gust Speed -    
Visibility 12.0 miles    
Events Rain , Thunderstorm    
T = Trace of Precipitation, MM = Missing Value Source: Averaged Metar Reports

Daily Weather History Graph

Daily Weather History Graph

Search for Another Location

Airport or City:

Trip Planner

Search our weather history database for the weather conditions in past years. The results will help you decide how hot, cold, wet, or windy it might be!

Date:

Astronomy

Jan. 01, 2008 Rise Set
Actual Time 5:32 AM FJT 6:44 PM FJT
Civil Twilight 5:08 AM FJT 7:08 PM FJT
Nautical Twilight 4:40 AM FJT 7:37 PM FJT
Astronomical Twilight 4:10 AM FJT 8:06 PM FJT
Moon No Moon Rise 12:38 PM FJT (1/1)
Length of Visible Light 14h 00m
Length of Day
13h 11m
Last Quarter, 44% of the Moon is Illuminated
Jan 1
Last Quarter
Jan 8
New
Jan 16
First Quarter
Jan 23
Full
Jan 30
Last Quarter

Hourly Weather History & Observations

Time (FJT) Temp. Heat Index Dew Point Humidity Pressure Visibility Wind Dir Wind Speed Gust Speed Precip Events Conditions
12:00 AM 76 °F - 76 °F 100% 29.69 in 12 mi Calm Calm - -   Partly Cloudy
12:00 AM 77.0 °F - 75.2 °F 94% 29.68 in 24.9 mi Calm Calm - N/A   Partly Cloudy
1:00 AM 75.2 °F - 75.2 °F 100% 29.65 in 24.9 mi Calm Calm - N/A   Partly Cloudy
2:00 AM 75.2 °F - 75.2 °F 100% 29.65 in 24.9 mi Calm Calm - N/A   Scattered Clouds
3:00 AM 75 °F - 75 °F 100% 29.67 in 12 mi Calm Calm - -   Partly Cloudy
3:00 AM 75.2 °F - 75.2 °F 100% 29.65 in 24.9 mi Calm Calm - N/A   Scattered Clouds
4:00 AM 75.2 °F - 75.2 °F 100% 29.71 in 24.9 mi Calm Calm - N/A   Mostly Cloudy
5:00 AM 75.2 °F - 75.2 °F 100% 29.65 in 24.9 mi WNW 5.8 mph - N/A   Partly Cloudy
6:00 AM 74 °F - 74 °F 100% 29.67 in 31 mi NW 6.9 mph - -   Partly Cloudy
6:00 AM 75.2 °F - 73.4 °F 94% 29.65 in 31.1 mi NW 6.9 mph - N/A   Scattered Clouds
7:00 AM 77.0 °F - 77.0 °F 100% 29.68 in 31.1 mi NW 4.6 mph - N/A   Scattered Clouds
8:00 AM 82.4 °F 90.9 °F 77.0 °F 84% 29.68 in 31.1 mi West 4.6 mph - N/A   Scattered Clouds
9:00 AM 85 °F - 77 °F 71% 29.71 in 31 mi Calm Calm - -   Partly Cloudy
9:00 AM 86.0 °F 96.9 °F 77.0 °F 74% 29.68 in 31.1 mi Calm Calm - N/A   Scattered Clouds
10:00 AM 86.0 °F 96.9 °F 77.0 °F 74% 29.68 in 31.1 mi Calm Calm - N/A   Mostly Cloudy
11:00 AM 87.8 °F 99.7 °F 77.0 °F 70% 29.68 in 31.1 mi SSE 5.8 mph - N/A   Mostly Cloudy
12:00 PM 84 °F - 77 °F 75% 29.68 in 31 mi SSE 6.9 mph - -   Partly Cloudy
12:00 PM 84.2 °F 94.1 °F 77.0 °F 79% 29.65 in 31.1 mi SSE 6.9 mph - N/A   Mostly Cloudy
1:00 PM 84.2 °F 96.1 °F 78.8 °F 84% 29.65 in 31.1 mi NE 9.2 mph - N/A   Scattered Clouds
2:00 PM 87.8 °F 104.9 °F 80.6 °F 79% 29.62 in 31.1 mi NNE 11.5 mph - N/A   Scattered Clouds
3:00 PM 84 °F - 76 °F 71% 29.65 in 31 mi North 5.8 mph - - Thunderstorm Thunderstorm
3:00 PM 84.2 °F 94.1 °F 77.0 °F 79% 29.65 in 24.9 mi North 5.8 mph - N/A Thunderstorm Light Thunderstorm
4:00 PM 80.6 °F 86.2 °F 75.2 °F 84% 29.62 in 24.9 mi Calm Calm - N/A Rain , Thunderstorm Light Thunderstorms and Rain
5:00 PM 82.4 °F 90.9 °F 77.0 °F 84% 29.62 in 24.9 mi Calm Calm - N/A Rain , Thunderstorm Light Thunderstorms and Rain
6:00 PM 82 °F - 77 °F 79% 29.66 in 12 mi Calm Calm - - Thunderstorm Light Thunderstorm
6:00 PM 82.4 °F 90.9 °F 77.0 °F 84% 29.65 in 24.9 mi Calm Calm - N/A   Scattered Clouds
7:00 PM 80.6 °F 86.2 °F 75.2 °F 84% 29.68 in 31.1 mi Calm Calm - N/A   Mostly Cloudy
8:00 PM 80.6 °F 86.2 °F 75.2 °F 84% 29.68 in 31.1 mi Calm Calm - N/A   Mostly Cloudy
9:00 PM 78 °F - 77 °F 94% 29.70 in 31 mi Calm Calm - -   Partly Cloudy
9:00 PM 78.8 °F - 77.0 °F 94% 29.68 in 31.1 mi Calm Calm - N/A   Scattered Clouds
10:00 PM 77.0 °F - 75.2 °F 94% 29.71 in 31.1 mi Calm Calm - N/A   Mostly Cloudy
11:00 PM 77.0 °F - 75.2 °F 94% 29.71 in 24.9 mi WNW 5.8 mph - N/A   Scattered Clouds